Weather History for Marrakech, Morocco

Change the Weather History Date:

Saturday, November 30, 2013

  Actual Average Record
Temperature  
Mean Temperature 64 °F -  
Max Temperature 74 °F 64 °F 77 °F (2011)
Min Temperature 53 °F 43 °F 33 °F (2003)
Degree Days  
Heating Degree Days 1    
Growing Degree Days 14 (Base 50)    
Moisture  
Dew Point 45 °F    
Average Humidity 53    
Maximum Humidity 72    
Minimum Humidity 22    
Precipitation  
Precipitation 0.00 in 0.04 in - ()
Sea Level Pressure  
Sea Level Pressure 30.04 in    
Wind  
Wind Speed 3 mph ()    
Max Wind Speed 9 mph    
Max Gust Speed -    
Visibility 5.7 miles    
Events      
Averages and records for this station are not official NWS values.
T = Trace of Precipitation, MM = Missing Value Source: Averaged Metar Reports

Daily Weather History Graph

Daily Weather History Graph

Search for Another Location

Airport:

Trip Planner

Search our weather history database for the weather conditions in past years. The results will help you decide how hot, cold, wet, or windy it might be!

Date:

Astronomy

Nov. 30, 2013 Rise Set
Actual Time 7:13 AM WET 5:28 PM WET
Civil Twilight 6:46 AM WET 5:54 PM WET
Nautical Twilight 6:16 AM WET 6:24 PM WET
Astronomical Twilight 5:47 AM WET 6:54 PM WET
Moon 4:18 AM WET (11/30) 3:35 PM WET (11/30)
Length of Visible Light 11h 08m
Length of Day
10h 15m
Waning Crescent, 8% of the Moon is Illuminated
Nov 30
Waning Crescent
Dec 3
New
Dec 9
First Quarter
Dec 17
Full
Dec 25
Last Quarter

Hourly Weather History & Observations

Time (WET) Temp. Dew Point Humidity Pressure Visibility Wind Dir Wind Speed Gust Speed Precip Events Conditions
12:00 AM 59 °F 45 °F 50% 30.12 in 4 mi ESE 1.2 mph - -   Scattered Clouds
12:00 AM 59.0 °F 46.4 °F 63% 30.12 in 4.3 mi Variable 1.2 mph - N/A   Scattered Clouds
12:30 AM 59.0 °F 46.4 °F 63% 30.12 in 4.3 mi East 3.5 mph - N/A   Scattered Clouds
1:00 AM 59.0 °F 44.6 °F 59% 30.09 in 5.6 mi ESE 3.5 mph - N/A   Scattered Clouds
1:30 AM 57.2 °F 44.6 °F 63% 30.09 in 5.0 mi Calm Calm - N/A   Scattered Clouds
2:00 AM 57.2 °F 46.4 °F 67% 30.09 in 5.0 mi Variable 1.2 mph - N/A   Scattered Clouds
2:30 AM 55.4 °F 46.4 °F 72% 30.09 in 6.2 mi SW 3.5 mph - N/A   Scattered Clouds
3:00 AM 56 °F 46 °F 60% 30.09 in 6 mi SW 2.3 mph - -   Scattered Clouds
3:00 AM 55.4 °F 46.4 °F 72% 30.09 in 6.2 mi Variable 2.3 mph - N/A   Scattered Clouds
3:30 AM 55.4 °F 44.6 °F 67% 30.06 in 6.2 mi SW 3.5 mph - N/A   Scattered Clouds
4:00 AM 55.4 °F 44.6 °F 67% 30.06 in 6.2 mi WSW 2.3 mph - N/A   Scattered Clouds
4:30 AM 55.4 °F 44.6 °F 67% 30.06 in 6.2 mi Calm Calm - N/A   Scattered Clouds
5:00 AM 57.2 °F 46.4 °F 67% 30.06 in 6.2 mi SE 1.2 mph - N/A   Scattered Clouds
5:30 AM 55.4 °F 46.4 °F 72% 30.06 in 6.2 mi ENE 4.6 mph - N/A   Scattered Clouds
6:00 AM 56 °F 46 °F 59% 30.06 in 6 mi ESE 3.5 mph - -   Scattered Clouds
6:00 AM 55.4 °F 46.4 °F 72% 30.06 in 6.2 mi ESE 3.5 mph - N/A   Scattered Clouds
6:30 AM 55.4 °F 46.4 °F 72% 30.06 in 5.6 mi WSW 2.3 mph - N/A   Scattered Clouds
7:00 AM 55.4 °F 46.4 °F 72% 30.06 in 6.2 mi East 2.3 mph - N/A   Scattered Clouds
7:30 AM 55.4 °F 46.4 °F 72% 30.06 in 6.2 mi SE 3.5 mph - N/A   Scattered Clouds
8:00 AM 55.4 °F 46.4 °F 72% 30.09 in 5.0 mi Variable 1.2 mph - N/A   Scattered Clouds
8:30 AM 55.4 °F 46.4 °F 72% 30.09 in 4.3 mi NE 3.5 mph - N/A   Scattered Clouds
9:00 AM 58 °F 47 °F 57% 30.10 in 4 mi ENE 3.5 mph - -   Partly Cloudy
9:00 AM 57.2 °F 46.4 °F 67% 30.09 in 3.7 mi East 3.5 mph - N/A   Scattered Clouds
9:30 AM 59.0 °F 46.4 °F 63% 30.12 in 4.3 mi ENE 3.5 mph - N/A   Scattered Clouds
10:00 AM 62.6 °F 44.6 °F 52% 30.09 in 5.0 mi SE 6.9 mph - N/A   Mostly Cloudy
10:30 AM 64.4 °F 44.6 °F 49% 30.09 in 6.2 mi SE 4.6 mph - N/A   Mostly Cloudy
11:00 AM 66.2 °F 44.6 °F 46% 30.09 in 6.2 mi East 3.5 mph - N/A   Mostly Cloudy
11:30 AM 68.0 °F 44.6 °F 43% 30.09 in 6.2 mi NNE 5.8 mph - N/A   Mostly Cloudy
12:00 PM 69 °F 45 °F 31% 30.02 in 5 mi NNE 3.5 mph - -   Partly Cloudy
12:00 PM 69.8 °F 44.6 °F 40% 30.06 in 5.0 mi NNE 4.6 mph - N/A   Mostly Cloudy
12:30 PM 69.8 °F 44.6 °F 40% 30.04 in 6.2 mi NNE 4.6 mph - N/A   Scattered Clouds
1:00 PM 71.6 °F 44.6 °F 38% 30.04 in 6.2 mi NE 5.8 mph - N/A   Scattered Clouds
1:30 PM 71.6 °F 42.8 °F 35% 30.01 in 6.2 mi NE 4.6 mph - N/A   Scattered Clouds
2:00 PM 71.6 °F 42.8 °F 35% 30.01 in 6.2 mi NNW 4.6 mph - N/A   Scattered Clouds
2:30 PM 73.4 °F 42.8 °F 33% 30.01 in 6.2 mi Variable 3.5 mph - N/A   Scattered Clouds
3:00 PM 74 °F 43 °F 22% 29.94 in 6 mi West 3.5 mph - -   Partly Cloudy
3:00 PM 73.4 °F 42.8 °F 33% 30.01 in 6.2 mi West 3.5 mph - N/A   Scattered Clouds
3:30 PM 73.4 °F 42.8 °F 33% 30.01 in 6.2 mi NW 5.8 mph - N/A   Scattered Clouds
4:00 PM 73.4 °F 42.8 °F 33% 29.98 in 6.2 mi West 4.6 mph - N/A   Scattered Clouds
4:30 PM 73.4 °F 42.8 °F 33% 29.98 in 6.2 mi West 4.6 mph - N/A   Scattered Clouds
5:00 PM 73.4 °F 42.8 °F 33% 29.98 in 6.2 mi NW 4.6 mph - N/A   Scattered Clouds
5:30 PM 71.6 °F 42.8 °F 35% 29.98 in 6.2 mi NNW 4.6 mph - N/A   Scattered Clouds
6:00 PM 69 °F 43 °F 27% 29.93 in 6 mi NNW 4.6 mph - -   Partly Cloudy
6:00 PM 69.8 °F 42.8 °F 38% 29.98 in 6.2 mi NNW 4.6 mph - N/A   Scattered Clouds
6:30 PM 68.0 °F 42.8 °F 40% 29.98 in 5.6 mi NNW 3.5 mph - N/A   Scattered Clouds
7:00 PM 66.2 °F 44.6 °F 46% 29.98 in 5.0 mi North 5.8 mph - N/A   Scattered Clouds
7:30 PM 64.4 °F 42.8 °F 45% 29.98 in 6.2 mi North 6.9 mph - N/A   Scattered Clouds
8:00 PM 64.4 °F 42.8 °F 45% 29.98 in 6.2 mi NNE 9.2 mph - N/A   Partly Cloudy
8:30 PM 62.6 °F 42.8 °F 48% 30.01 in 6.2 mi ENE 6.9 mph - N/A   Partly Cloudy
9:00 PM 61 °F 43 °F 41% 29.98 in 6 mi ENE 5.8 mph - -   Scattered Clouds
9:00 PM 60.8 °F 42.8 °F 52% 30.01 in 6.2 mi ENE 6.9 mph - N/A   Partly Cloudy
9:30 PM 59.0 °F 44.6 °F 59% 30.01 in 6.2 mi East 5.8 mph - N/A   Partly Cloudy
10:00 PM 59.0 °F 44.6 °F 59% 30.01 in 6.2 mi ESE 3.5 mph - N/A   Partly Cloudy
10:30 PM 59.0 °F 44.6 °F 59% 29.98 in 6.2 mi Variable 1.2 mph - N/A   Partly Cloudy
11:00 PM 55.4 °F 44.6 °F 67% 29.98 in 6.2 mi WSW 3.5 mph - N/A   Partly Cloudy
11:30 PM 53.6 °F 44.6 °F 72% 29.98 in 6.2 mi West 3.5 mph - N/A   Partly Cloudy